Location: Azul
(36.7830°S, 59.8500°W)
Time: 02:28:21
(UTC-03:00)

DX 1 - Visible Passes

Search period start: 23 October 2021 00:00
Search period end: 02 November 2021 00:00
Orbit: 618 x 630 km, 98.4° (Epoch: 22 October)

Date Brightness Start Highest point End Pass type
(mag) Time Alt. Az. Time Alt. Az. Time Alt. Az.
23 Oct ? 21:22:05 10° NW 21:24:45 16° W 21:27:26 10° SW visible
24 Oct ? 20:02:37 10° NNE 20:06:59 67° ESE 20:11:24 10° S visible
25 Oct ? 20:21:09 10° N 20:25:32 75° WNW 20:30:00 10° SSW visible
26 Oct ? 20:39:57 10° N 20:44:09 45° W 20:48:25 10° SSW visible
27 Oct ? 20:59:02 10° NNW 21:02:48 28° W 21:06:37 10° SW visible
28 Oct ? 21:18:33 10° NW 21:21:30 18° W 21:24:29 10° SW visible
29 Oct ? 19:59:28 10° NNE 20:03:47 59° ESE 20:08:10 10° S visible
29 Oct ? 21:39:17 10° WNW 21:40:15 11° W 21:41:13 10° WSW visible
30 Oct ? 20:17:56 10° NNE 20:22:20 84° WNW 20:26:47 10° SSW visible
31 Oct ? 20:36:39 10° N 20:40:55 51° W 20:45:15 10° SSW visible
01 Nov ? 20:55:40 10° NNW 20:59:34 31° W 21:03:31 10° SW visible
